Retour au catalogue

ONEWEB-0504

ActifCommunicationsPO
NORAD 54122·PAYLOAD·🇬🇧 United Kingdom

Lancé Oct 22, 2022 depuis Satish Dhawan Space Centre

Loading…

Prochains Passages (prochaines 24 heures)

TLE

FraisSource: CelesTrak SupGP

Époque: Sep 15, 2026, 03:05 UTC

1 54122C 22138K   26258.12899723 -.00002977  00000+0 -74449-2 0  2588
2 54122  87.9113 287.0524 0002148  89.1312 300.3852 13.19730436    11

Suivez ONEWEB-0504 en temps réel avec AllMySat

Download on the App Store